This is the latest recevied weather packets stored in our database for station/object N4WFF. If no packets are shown the sender has not sent any weather packets the latest 10 day(s).
| Time | Temp. | Humidity | Pressure | Rain* | Wind** | Luminosity | Snow |
|---|---|---|---|---|---|---|---|
| 1777591555 | 22.78° C | 81% | 1011.3 hPa | 0 mm | - | 59 W/m² | - |
| 1777591255 | 22.78° C | 81% | 1011.4 hPa | 0 mm | - | 124 W/m² | - |
| 1777590955 | 22.78° C | 81% | 1011.4 hPa | 0 mm | - | 88 W/m² | - |
| 1777590655 | 22.78° C | 80% | 1011.2 hPa | 0 mm | - | 118 W/m² | - |
| 1777590357 | 22.78° C | 80% | 1011.3 hPa | 0 mm | - | 146 W/m² | - |
| 1777590055 | 22.78° C | 80% | 1011.4 hPa | 0 mm | - | 188 W/m² | - |
| 1777589756 | 22.78° C | 80% | 1011.1 hPa | 0 mm | - | 143 W/m² | - |
| 1777589457 | 22.78° C | 81% | 1010.9 hPa | 0 mm | - | 169 W/m² | - |
| 1777589155 | 22.78° C | 81% | 1011.3 hPa | 0 mm | - | 103 W/m² | - |
| 1777588856 | 22.78° C | 81% | 1011.1 hPa | 0 mm | - | 111 W/m² | - |
| 1777588555 | 22.78° C | 79% | 1011.2 hPa | 0 mm | - | 104 W/m² | - |
| 1777588255 | 23.33° C | 79% | 1011.3 hPa | 0 mm | - | 135 W/m² | - |
| 1777587956 | 23.33° C | 79% | 1011.2 hPa | 0 mm | - | 234 W/m² | - |
| 1777587655 | 23.33° C | 78% | 1011.2 hPa | 0 mm | - | 187 W/m² | - |
| 1777587356 | 23.33° C | 78% | 1011.1 hPa | 0 mm | - | 261 W/m² | - |
| 1777587055 | 23.33° C | 79% | 1011 hPa | 0 mm | - | 235 W/m² | - |
| 1777586755 | 22.78° C | 80% | 1011 hPa | 0 mm | - | 193 W/m² | - |
| 1777586455 | 23.33° C | 80% | 1011.1 hPa | 0 mm | - | 305 W/m² | - |
| 1777586155 | 23.33° C | 79% | 1011.3 hPa | 0 mm | - | 100 W/m² | - |
| 1777585856 | 23.33° C | 79% | 1011.4 hPa | 0 mm | - | 75 W/m² | - |
| 1777585555 | 23.89° C | 78% | 1011.5 hPa | 0 mm | - | 79 W/m² | - |
| 1777585260 | 23.89° C | 77% | 1011.3 hPa | 0 mm | - | 141 W/m² | - |
| 1777584956 | 23.89° C | 77% | 1011.3 hPa | 0 mm | - | 137 W/m² | - |
| 1777584656 | 23.89° C | 76% | 1011.3 hPa | 0 mm | - | 162 W/m² | - |
| 1777584355 | 24.44° C | 74% | 1011.2 hPa | 0 mm | - | 195 W/m² | - |
* Rain latest hour (hover to see other rain measurements)
** Current wind speed in m/s (hover to see current wind gust speed)